CAPE
0 0 0 0 0 0 0 0 0 0 0 0 0 0 0 0 0 0 0 0 0 0 0 0 0 0 0 0 0 0 0 0 0 0 0 0 0 0 0 0 0 0 0 0
0 0 0 0 0 0 0 0 0 0 0 0 0 0 0 0 0 0 0 0 0 0 0 0 0 0 0 0 0 0 0 0 0 0 0 0 0 0 0 0 0 0 0 0
0 0 0 0 0 0 0 0 0 0 0 0 0 0 0 0 0 0 0 0 0 0 0 0 0 0 0 0 0 0 0 0 0 0 0 0 0 0 0 0 0 0 0 0
0 0 0 0 0 0 0 0 0 0 0 0 0 0 0 0 0 0 0 0 0 0 0 0 0 0 0 0 0 0 0 0 0 0 0 0 0 0 0 0 0 0 0 0
0 0 0 0 0 0 0 0 0 0 0 0 0 0 0 0 0 0 0 0 0 0 0 0 0 0 0 0 0 0 0 0 0 0 0 0 0 0 0 0 0 0 0 0
0 0 0 0 0 0 0 0 0 0 0 0 0 0 0 0 0 0 0 0 0 0 0 0 0 0 0 0 0 0 0 0 0 0 0 0 0 0 0 0 0 0 0 0
0 0 0 0 0 0 0 0 0 0 0 0 0 0 0 0 0 0 0 0 0 0 0 0 0 0 0 0 0 0 0 0 0 0 0 0 0 0 0 0 0 0 0 0
0 0 0 0 0 0 0 0 0 0 0 0 0 0 0 0 0 0 0 0 0 0 0 0 0 0 0 0 0 0 0 0 0 0 0 0 0 0 0 0 0 0 0 0
0 0 0 0 0 0 0 0 0 0 0 0 0 0 0 0 0 0 0 0 0 0 0 0 0 0 0 0 0 0 0 0 0 0 0 0 0 0 0 0 0 0 0 0
0 0 0 0 0 0 0 0 0 0 0 0 0 0 0 0 0 0 0 0 0 0 0 0 0 0 0 0 0 0 0 0 0 0 0 0 0 0 0 0 0 0 0 0
0 0 0 0 0 0 0 0 0 0 0 0 0 0 0 0 0 0 0 0 0 0 0 0 0 0 0 0 0 0 0 0 0 0 0 0 0 0 0 0 0 0 0 0
0 0 0 0 0 0 0 0 0 0 0 0 0 0 0 0 0 0 0 0 0 0 0 0 0 0 0 0 0 0 0 0 0 0 0 0 0 0 0 0 0 0 0 0
0 0 0 0 0 0 0 0 0 0 0 0 0 0 0 0 0 0 0 0 0 0 0 0 0 0 0 0 0 0 0 0 0 0 0 0 0 0 0 0 0 0 0 0
0 0 0 0 0 0 0 0 0 0 0 0 0 0 0 0 0 0 0 0 0 0 0 0 0 0 0 0 0 0 0 0 0 0 0 0 0 0 0 0 0 0 0 0
0 0 0 0 0 0 0 0 0 0 0 0 0 0 0 0 0 0 0 0 0 0 0 0 0 0 0 0 0 0 0 0 0 0 0 0 0 0 0 0 0 0 0 0
0 0 0 0 0 0 0 0 0 0 0 0 0 0 0 0 0 0 0 0 0 0 0 0 0 0 0 0 0 0 0 0 0 0 0 0 0 0 0 0 0 0 0 0
0 0 0 0 0 0 0 0 0 0 0 0 0 0 0 0 0 0 0 0 0 0 0 0 0 0 0 0 0 0 0 0 0 0 0 0 0 0 0 0 0 0 0 0
0 0 0 0 0 0 0 0 0 0 0 0 0 0 0 0 0 0 0 0 0 0 0 0 0 0 0 0 0 0 0 0 0 0 0 0 0 0 0 0 0 0 0 0
1 2 0 1 1 0 0 0 0 0 0 0 0 0 0 0 0 0 0 0 0 0 0 0 0 0 0 0 0 0 0 0 0 0 0 0 0 0 0 0 0 0 0 0
1 1 0 0 0 0 0 0 0 0 0 0 0 0 0 0 0 0 0 0 0 0 0 0 0 0 0 0 0 0 0 0 0 0 0 0 0 0 0 0 0 0 0 0
0 0 0 0 0 0 0 0 0 0 0 0 0 0 0 0 0 0 0 0 0 0 0 0 0 0 0 0 0 0 0 0 0 0 0 0 0 0 0 0 0 0 0 0
0 0 0 0 0 0 0 0 0 0 0 0 0 0 0 0 0 0 0 0 0 0 0 0 0 0 0 0 0 0 0 0 0 0 0 0 0 0 0 0 0 0 0 0
0 0 0 0 0 0 0 0 0 0 0 0 0 0 0 0 0 0 0 0 0 0 0 0 0 0 0 0 0 0 0 0 0 0 0 1 1 1 1 0 0 0 0 0
0 0 0 0 0 0 0 0 0 0 0 0 0 0 0 0 0 0 0 0 0 0 0 0 0 0 0 0 0 0 0 0 0 1 3 3 3 2 1 1 0 0 0 0
0 1 0 0 0 0 0 0 0 0 0 0 0 0 0 0 0 0 0 0 0 0 0 0 0 0 0 0 0 0 0 0 0 0 0 0 0 1 0 0 0 0 0 0
0 0 0 0 0 0 0 0 0 0 0 0 0 0 0 0 0 0 0 0 0 0 0 0 0 0 0 0 0 0 0 0 0 0 0 0 0 0 0 0 0 0 0 0
CIN
0 0 0 0 0 0 0 0 0 0 0 0 0 0 0 0 0 0 0 0 0 0 0 0 0 0 0 0 0 0 0 0 0 0 0 0 0 0 0 0 0 0 0 0
0 0 0 0 0 0 0 0 0 0 0 0 0 0 0 0 0 0 0 0 0 0 0 0 0 0 0 0 0 0 0 0 0 0 0 0 0 0 0 0 0 0 0 0
0 0 0 0 0 0 0 0 0 0 0 0 0 0 0 0 0 0 0 0 0 0 0 0 0 0 0 0 0 0 0 0 0 0 0 0 0 0 0 0 0 0 0 0
0 0 0 0 0 0 0 0 0 0 0 0 0 0 0 0 0 0 0 0 0 0 0 0 0 0 0 0 0 0 0 0 0 0 0 0 0 0 0 0 0 0 0 0
0 0 0 0 0 0 0 0 0 0 0 0 0 0 0 0 0 0 0 0 0 0 0 0 0 0 0 0 0 0 0 0 0 0 0 0 0 0 0 0 0 0 0 0
0 0 0 0 0 0 0 0 0 0 0 0 0 0 0 0 0 0 0 0 0 0 0 0 0 0 0 0 0 0 0 0 0 0 0 0 0 0 0 0 0 0 0 0
0 0 0 0 0 0 0 0 0 0 0 0 0 0 0 0 0 0 0 0 0 0 0 0 0 0 0 0 0 0 0 0 0 0 0 0 0 0 0 0 0 0 0 0
0 0 0 0 0 0 0 0 0 0 0 0 0 0 0 0 0 0 0 0 0 0 0 0 0 0 0 0 0 0 0 0 0 0 0 0 0 0 0 0 0 0 0 0
0 0 0 0 0 0 0 0 0 0 0 0 0 0 0 0 0 0 0 0 0 0 0 0 0 0 0 0 0 0 0 0 0 0 0 0 0 0 0 0 0 0 0 0
0 0 0 0 0 0 0 0 0 0 0 0 0 0 0 0 0 0 0 0 0 0 0 0 0 0 0 0 0 0 0 0 0 0 0 0 0 0 0 0 0 0 0 0
0 0 0 0 0 0 0 0 0 0 0 0 0 0 0 0 0 0 0 0 0 0 0 0 0 0 0 0 0 0 0 0 0 0 0 0 0 0 0 0 0 0 0 0
0 0 0 0 0 0 0 0 0 0 0 0 0 0 0 0 0 0 0 0 0 0 0 0 0 0 0 0 0 0 0 0 0 0 0 0 0 0 0 0 0 0 0 0
0 0 0 0 0 0 0 0 0 0 0 0 0 0 0 0 0 0 0 0 0 0 0 0 0 0 0 0 0 0 0 0 0 0 0 0 0 0 0 0 0 0 0 0
0 0 0 0 0 0 0 0 0 0 0 0 0 0 0 0 0 0 0 0 0 0 0 0 0 0 0 0 0 0 0 0 0 0 0 0 0 0 0 0 0 0 0 0
0 0 0 0 0 0 0 0 0 0 0 0 0 0 0 0 0 0 0 0 0 0 0 0 0 0 0 0 0 0 0 0 0 0 0 0 0 0 0 0 0 0 0 0
0 0 0 0 0 0 0 0 0 0 0 0 0 0 0 0 0 0 0 0 0 0 0 0 0 0 0 0 0 0 0 0 0 0 0 0 0 0 0 0 0 0 0 0
0 0 0 0 0 0 0 0 0 0 0 0 0 0 0 0 0 0 0 0 0 0 0 0 0 0 0 0 0 0 0 0 0 0 0 0 0 0 0 0 0 0 0 0
0 -1 0 -2 0 0 0 0 0 0 0 0 0 0 0 0 0 0 0 0 0 0 0 0 0 0 0 0 0 0 0 0 0 0 0 0 0 0 0 0 0 0 0 0
0 0 0 0 0 0 0 0 0 0 0 0 0 0 0 0 0 0 0 0 0 0 0 0 0 0 0 0 0 0 0 0 0 0 0 0 0 0 0 0 0 0 0 0
0 0 0 0 0 0 0 0 0 0 0 0 0 0 0 0 0 0 0 0 0 0 0 0 0 0 0 0 0 0 0 0 0 0 0 0 0 0 0 0 0 0 0 0
0 0 0 0 -1 0 0 0 0 0 0 0 0 0 0 0 0 0 0 0 0 0 0 0 0 0 0 0 0 0 0 0 0 0 0 0 0 0 0 0 0 0 0 0
0 0 0 0 0 0 0 0 0 0 0 0 0 0 0 0 0 0 0 0 0 0 0 0 0 0 0 0 0 0 0 0 0 0 0 0 0 0 0 0 0 0 0 0
0 0 0 0 0 0 0 0 0 0 0 0 0 0 0 0 0 0 0 0 0 0 0 0 0 0 0 0 0 0 0 0 0 0 0 0 0 0 0 0 0 0 0 0
0 0 0 0 0 0 0 0 0 0 0 0 0 0 0 0 0 0 0 0 0 0 0 0 0 0 0 0 0 0 0 0 0 0 0 0 0 0 0 0 0 0 0 0
0 -7 -2 0 0 0 0 0 0 0 0 0 0 0 0 0 0 0 0 0 0 0 0 0 0 0 0 0 0 0 0 0 0 0 0 0 0 0 0 0 0 0 0 0
0 0 0 0 0 0 0 0 0 0 0 0 0 0 0 0 0 0 0 0 0 0 0 0 0 0 0 0 0 0 0 0 0 0 0 0 0 0 0 0 0 0 0 0
Wind_Speed
21 25 26 22 21 26 27 31 34 30 26 28 28 27 25 25 20 17 14 12 14 15 16 12 11 11 11 13 12 11 11 10 9 9 10 11 11 9 8 6 4 3 2 3
24 32 23 23 24 26 28 33 35 36 30 30 36 32 36 24 16 16 18 18 19 17 18 17 15 14 14 13 13 12 13 11 10 10 10 10 7 8 6 5 5 4 3 3
30 28 21 22 25 27 29 30 32 35 35 35 43 53 29 29 16 17 18 21 20 20 20 18 18 18 16 14 13 12 12 11 11 10 8 6 5 5 6 4 3 4 3 3
34 31 29 28 30 24 33 27 30 34 36 41 32 54 41 29 15 19 16 18 19 20 20 20 20 19 18 15 12 11 11 10 10 8 7 7 7 6 6 4 2 2 2 3
34 29 27 30 30 24 34 27 29 32 35 40 34 41 45 26 31 16 12 15 21 17 16 16 18 19 17 14 12 10 10 10 8 7 7 7 6 5 4 3 2 1 2 2
36 29 28 28 26 23 21 26 29 30 34 42 32 29 56 31 23 23 24 27 24 18 13 13 14 15 15 13 12 10 10 10 8 8 9 8 8 7 7 5 4 2 1 1
36 36 31 27 29 26 25 28 38 40 35 39 33 31 29 32 33 31 34 30 26 20 16 12 9 11 13 13 12 11 10 9 9 9 9 9 9 8 9 8 7 7 4 4
35 42 29 28 29 30 27 27 31 39 38 40 30 34 40 29 30 31 26 25 22 17 13 11 8 9 11 11 11 10 10 10 10 10 10 9 10 9 9 8 8 6 6 6
34 39 27 25 25 22 27 30 26 33 35 42 37 45 47 41 24 23 32 27 23 15 9 8 6 7 9 10 11 10 10 11 11 11 10 11 11 11 11 9 8 6 6 6
29 38 27 25 22 25 26 19 29 28 37 40 38 43 40 35 35 34 29 25 16 12 8 5 5 7 8 9 10 10 10 11 11 11 11 12 12 11 11 10 9 9 8 6
27 30 30 24 28 27 26 28 26 25 29 36 44 45 24 26 27 26 30 25 16 10 6 4 5 6 8 8 10 10 11 12 12 12 12 12 12 12 11 11 11 10 8 7
27 28 36 33 28 26 27 30 28 32 34 34 37 58 26 27 28 29 28 23 18 15 9 8 6 6 8 9 10 11 12 13 13 13 13 14 14 14 14 14 13 11 10 9
20 29 35 34 31 30 32 30 28 31 31 37 36 37 23 25 27 26 28 25 22 19 17 13 10 9 10 11 12 13 14 14 14 14 15 15 15 16 16 16 15 13 12 10
22 31 37 43 34 26 30 30 29 30 36 36 37 44 37 36 36 33 31 28 24 20 18 16 14 12 13 13 14 15 16 16 16 16 17 17 17 17 17 16 15 14 13 12
27 40 37 40 37 33 35 33 32 36 36 36 40 40 46 38 39 37 32 30 29 26 22 20 19 18 17 17 18 18 18 18 18 19 20 20 19 18 18 18 17 15 15 13
34 42 39 50 42 41 44 41 40 38 39 41 44 47 40 35 35 38 38 38 35 32 30 28 25 23 23 22 20 20 20 20 19 20 21 20 19 19 19 19 18 17 16 15
33 39 45 61 49 44 50 50 44 44 42 41 48 44 57 43 41 40 39 37 35 32 31 30 26 23 23 22 21 21 20 19 20 21 21 20 20 21 20 20 19 19 18 17
46 46 43 53 41 54 50 45 43 45 47 43 46 48 51 47 46 43 40 40 39 36 36 34 32 31 29 26 23 21 20 21 21 22 22 21 21 21 21 21 22 21 20 19
46 44 49 54 58 55 54 48 42 40 51 41 41 45 49 44 43 49 39 40 42 41 36 33 30 27 24 22 20 20 20 21 21 22 22 21 22 23 23 23 22 21 21 20
41 44 48 40 51 62 55 46 36 29 51 44 34 38 42 37 46 48 29 27 30 32 32 31 26 24 21 19 16 17 18 19 20 20 20 20 21 23 24 23 23 22 23 23
46 48 54 53 52 43 35 30 22 40 46 32 30 32 31 32 30 27 26 26 25 26 26 22 19 18 17 14 13 15 16 18 17 17 18 19 21 22 23 23 23 23 24 25
47 47 51 51 53 57 29 25 37 33 26 25 26 24 25 25 25 27 26 23 23 23 22 19 18 17 14 11 11 14 16 15 14 14 16 18 18 19 20 21 23 24 25 25
42 39 44 43 45 34 29 33 29 26 29 29 27 24 23 23 24 24 22 22 22 22 21 20 19 17 15 13 14 15 15 13 11 11 13 14 15 17 20 22 25 26 26 25
33 28 33 31 34 34 28 31 31 29 32 30 25 23 22 24 25 25 24 22 22 20 19 18 17 16 16 14 14 14 12 11 12 14 16 17 18 20 22 24 24 23 23 23
42 33 36 38 36 35 37 35 34 30 26 24 23 23 24 25 24 22 23 21 20 18 17 16 16 16 15 14 14 12 12 11 14 15 16 17 18 18 19 20 21 23 24 24
43 47 46 48 37 34 36 33 27 26 27 26 24 24 22 20 22 22 21 19 19 18 17 16 16 15 14 13 13 13 12 12 13 14 15 16 17 17 18 19 20 20 21 21
Wind_Direction
288 284 283 290 291 294 298 296 297 304 311 307 303 300 300 303 300 294 285 271 244 247 280 270 265 272 277 283 284 285 287 289 287 287 290 291 287 292 296 305 315 327 320 342
286 281 288 294 293 291 293 293 296 301 306 304 303 286 295 298 275 263 257 252 249 261 272 266 262 266 270 272 277 280 282 279 281 284 290 290 280 287 289 298 314 329 354 7
279 288 297 288 290 289 290 292 297 298 303 302 301 282 280 298 270 255 255 252 265 257 257 261 257 258 263 264 268 272 274 274 278 279 282 278 283 281 283 288 306 323 347 14
281 283 285 284 284 286 290 297 296 297 301 295 306 271 295 305 282 301 273 270 277 282 275 261 250 252 253 259 267 269 270 268 271 259 247 224 234 212 262 260 287 333 7 44
280 284 281 280 283 285 289 297 295 297 294 295 298 296 291 311 308 295 263 300 300 288 273 258 244 243 248 250 259 263 263 265 257 244 224 225 216 248 228 226 224 295 18 52
277 285 283 284 288 287 293 294 295 297 295 289 293 297 266 309 314 321 323 313 310 302 292 277 264 250 243 246 255 256 254 258 240 228 225 223 209 196 189 198 202 218 182 111
277 275 280 281 283 286 282 287 286 288 288 287 299 291 265 299 309 315 314 311 310 307 298 287 265 239 233 235 247 249 242 241 230 225 225 224 212 204 195 188 190 184 184 174
273 277 268 270 269 278 273 273 279 286 288 291 298 288 289 306 310 313 318 319 318 312 300 290 268 234 221 223 232 237 234 233 223 217 217 217 209 209 205 215 207 207 197 172
275 275 281 280 278 268 278 269 279 285 291 290 291 286 284 296 309 312 310 312 311 312 306 286 263 230 212 217 226 230 231 230 222 219 217 212 212 211 211 212 218 213 189 176
276 275 281 279 280 277 273 281 277 276 283 285 288 287 290 300 304 308 312 317 316 318 317 297 250 222 216 225 231 233 226 221 221 222 222 220 224 222 218 212 207 196 193 193
269 272 281 280 270 266 272 268 278 280 277 283 286 284 302 301 312 319 318 317 322 326 326 306 276 247 233 234 229 225 221 223 228 226 225 225 227 225 220 218 210 205 207 209
264 274 271 272 282 276 273 268 262 271 278 279 283 260 297 294 305 316 317 319 320 322 325 313 287 254 251 247 242 237 231 225 223 223 223 226 223 218 219 215 213 217 221 228
258 269 272 277 279 277 270 269 261 269 278 272 276 280 300 299 306 307 307 313 315 312 311 304 291 267 249 242 237 234 236 237 236 234 231 232 229 226 223 219 218 220 223 233
258 265 266 269 279 281 272 266 260 259 266 272 263 277 279 291 293 297 302 307 308 311 306 300 294 279 269 260 250 244 243 241 239 238 239 239 237 232 227 223 222 225 228 233
257 267 266 269 275 278 278 271 262 258 258 267 273 276 249 284 286 289 294 298 299 300 297 291 288 284 274 267 266 258 251 248 246 245 242 240 238 232 229 228 230 235 240 245
259 268 269 269 270 272 273 275 268 260 260 265 273 280 278 292 293 289 288 291 292 290 288 288 288 285 277 270 265 262 256 250 246 246 246 246 240 236 234 234 236 237 242 246
256 265 268 270 272 271 270 262 268 270 265 266 271 268 284 286 287 288 289 288 289 290 291 289 285 281 279 273 266 259 256 252 245 247 247 243 239 236 234 236 237 240 242 246
265 261 264 270 270 264 270 277 271 269 270 267 271 276 282 285 286 286 286 287 289 288 287 285 283 282 279 276 270 265 257 252 249 248 246 242 237 237 238 238 239 244 246 246
261 264 263 264 264 271 277 275 273 271 275 271 269 277 282 286 289 284 288 287 288 289 288 287 285 284 282 275 269 265 261 255 252 250 247 243 238 240 241 241 242 245 246 250
257 257 259 267 269 268 276 275 276 280 277 282 275 277 280 285 281 286 297 297 296 295 294 292 289 286 282 279 270 264 263 260 255 251 247 244 242 243 245 246 246 247 249 252
257 258 258 259 268 275 276 283 277 270 285 291 285 282 282 280 283 294 298 298 300 302 303 303 296 289 285 279 269 267 267 265 261 259 256 253 251 251 253 252 253 250 253 260
259 260 261 262 265 268 271 270 269 284 292 295 297 293 290 293 293 293 296 296 299 302 306 305 300 297 294 282 273 276 273 277 270 266 264 262 256 256 256 253 255 258 258 260
266 262 265 264 269 276 263 275 271 282 287 290 291 293 293 294 294 295 296 296 296 300 304 303 297 298 298 288 284 283 284 279 271 265 263 260 259 260 263 260 261 264 263 262
273 273 270 276 274 274 276 272 277 283 285 287 286 286 289 291 292 294 296 295 298 302 302 302 300 301 298 293 289 292 288 281 277 278 276 274 270 271 271 271 270 267 264 263
263 264 270 274 277 280 276 275 279 279 280 281 283 286 286 288 294 296 295 295 297 299 303 304 302 302 300 298 297 298 295 287 286 286 284 281 279 276 276 274 272 269 268 263
264 261 261 268 272 277 280 284 278 275 273 276 279 284 290 292 294 294 293 294 293 295 299 302 304 304 304 303 302 301 298 292 291 290 288 286 285 283 283 281 283 282 283 273